Location: Felsheim
(48.7267°N, 10.7386°E)
Time: 18:00:44
(UTC+00:00)

Cosmos 2082 Rocket - Pass Details

Date: 09 April 2020
Orbit: 831 x 855 km, 71.0° (Epoch: 01 June)

Event Time Altitude Azimuth Distance (km) Brightness Sun altitude
Exits shadow 20:33:42 22° 70° (ENE) 1,769 3.6 -22.8°
Drops below altitude 10° 20:36:17 10° 47° (NE) 2,467 4.6 -23.1°
Sets 20:39:03 0° 36° (NE) 3,411 5.5 -23.4°
